• In Switzerland
  • List of Countries
  • For 7 days
  • Water Temperature
  • Satellite Maps
  • Weather Map
  • Weather Widgets
  • user-avatar
    Login

    Hourly Weather Nagretdinovo

    Today, 22 July, Sunday

    Time Temperature Precipitation Wind Pressure Humidity
    00:00 +13°C° 0 mm 4 mps 742 mmHg 72%
    01:00 +13°C° 0 mm 4 mps 742 mmHg 71%
    02:00 +12°C° 0 mm 4 mps 742 mmHg 71%
    03:00 +12°C° 0 mm 4 mps 743 mmHg 72%
    04:00 +11°C° 0 mm 4 mps 743 mmHg 72%
    05:00 +12°C° 0 mm 4 mps 743 mmHg 71%
    06:00 +13°C° 0 mm 4 mps 743 mmHg 69%
    07:00 +13°C° 0 mm 5 mps 743 mmHg 67%
    08:00 +15°C° 0 mm 5 mps 743 mmHg 62%
    09:00 +16°C° 0 mm 6 mps 743 mmHg 56%
    10:00 +17°C° 0 mm 6 mps 744 mmHg 51%
    11:00 +19°C° 0 mm 6 mps 743 mmHg 49%
    12:00 +20°C° 0 mm 6 mps 743 mmHg 48%
    13:00 +21°C° 0 mm 5 mps 743 mmHg 46%
    14:00 +21°C° 0 mm 5 mps 743 mmHg 47%
    15:00 +21°C° 0 mm 5 mps 743 mmHg 48%
    16:00 +22°C° 0 mm 5 mps 743 mmHg 49%
    17:00 +21°C° 0 mm 4 mps 743 mmHg 54%
    18:00 +19°C° 0 mm 4 mps 743 mmHg 60%
    19:00 +18°C° 0 mm 3 mps 743 mmHg 65%
    20:00 +17°C° 0 mm 3 mps 743 mmHg 67%
    21:00 +14°C° 0 mm 3 mps 744 mmHg 70%
    22:00 +12°C° 0 mm 3 mps 744 mmHg 72%
    23:00 +12°C° 0 mm 3 mps 744 mmHg 74%

    Tomorrow, 23 July, Monday

    Time Temperature Precipitation Wind Pressure Humidity
    00:00 +12°C° 0 mm 2 mps 745 mmHg 77%
    01:00 +10°C° 0 mm 2 mps 745 mmHg 79%
    02:00 +10°C° 0 mm 2 mps 745 mmHg 81%
    03:00 +9°C° 0 mm 2 mps 745 mmHg 83%
    04:00 +9°C° 0 mm 2 mps 745 mmHg 85%
    05:00 +10°C° 0 mm 2 mps 746 mmHg 80%
    06:00 +13°C° 0 mm 2 mps 746 mmHg 76%
    07:00 +14°C° 0 mm 2 mps 746 mmHg 72%
    08:00 +16°C° 0 mm 2 mps 746 mmHg 66%
    09:00 +18°C° 0 mm 2 mps 746 mmHg 59%
    10:00 +20°C° 0 mm 3 mps 746 mmHg 53%
    11:00 +21°C° 0 mm 3 mps 746 mmHg 50%
    12:00 +22°C° 0 mm 3 mps 746 mmHg 47%
    13:00 +24°C° 0 mm 3 mps 745 mmHg 45%
    14:00 +24°C° 0 mm 2 mps 745 mmHg 45%
    15:00 +25°C° 0 mm 2 mps 745 mmHg 46%
    16:00 +25°C° 0 mm 2 mps 745 mmHg 47%
    17:00 +24°C° 0 mm 2 mps 745 mmHg 54%
    18:00 +23°C° 0 mm 2 mps 745 mmHg 61%
    19:00 +22°C° 0 mm 1 mps 745 mmHg 67%
    20:00 +21°C° 0 mm 1 mps 745 mmHg 71%
    21:00 +19°C° 0 mm 1 mps 745 mmHg 74%
    22:00 +16°C° 0 mm 1 mps 745 mmHg 77%
    23:00 +16°C° 0 mm 1 mps 745 mmHg 78%

    Day after tomorrow, 24 July, Tuesday

    Time Temperature Precipitation Wind Pressure Humidity
    00:00 +15°C° 0 mm 1 mps 745 mmHg 79%
    01:00 +15°C° 0 mm 1 mps 746 mmHg 81%
    02:00 +14°C° 0 mm 1 mps 746 mmHg 82%
    03:00 +14°C° 0 mm 1 mps 746 mmHg 84%
    04:00 +14°C° 0 mm 1 mps 746 mmHg 85%
    05:00 +15°C° 0 mm 1 mps 746 mmHg 81%
    06:00 +16°C° 0 mm 0 mps 746 mmHg 77%
    07:00 +18°C° 0 mm 0 mps 747 mmHg 73%
    08:00 +21°C° 0 mm 1 mps 747 mmHg 68%
    09:00 +23°C° 0 mm 1 mps 747 mmHg 63%
    10:00 +25°C° 0 mm 2 mps 747 mmHg 58%
    11:00 +26°C° 0 mm 2 mps 747 mmHg 56%
    12:00 +27°C° 0 mm 2 mps 746 mmHg 53%
    13:00 +28°C° 0 mm 3 mps 746 mmHg 50%
    14:00 +28°C° 0 mm 3 mps 746 mmHg 51%
    15:00 +28°C° 0 mm 3 mps 746 mmHg 52%
    16:00 +28°C° 0 mm 3 mps 746 mmHg 53%
    17:00 +27°C° 0 mm 3 mps 746 mmHg 59%
    18:00 +26°C° 0 mm 3 mps 746 mmHg 66%
    19:00 +25°C° 0 mm 2 mps 746 mmHg 73%
    20:00 +23°C° 0 mm 2 mps 746 mmHg 76%
    21:00 +21°C° 0 mm 2 mps 746 mmHg 79%
    22:00 +19°C° 0 mm 2 mps 746 mmHg 83%
    23:00 +19°C° 0 mm 2 mps 746 mmHg 82%

    25 July, Wednesday

    Time Temperature Precipitation Wind Pressure Humidity
    00:00 +18°C° 0 mm 2 mps 746 mmHg 82%
    01:00 +18°C° 0 mm 2 mps 747 mmHg 82%
    02:00 +17°C° 0 mm 2 mps 747 mmHg 81%
    03:00 +17°C° 0 mm 2 mps 747 mmHg 81%
    04:00 +17°C° 0 mm 2 mps 747 mmHg 80%
    05:00 +18°C° 0 mm 2 mps 747 mmHg 78%
    06:00 +19°C° 0 mm 2 mps 747 mmHg 77%
    07:00 +20°C° 0 mm 2 mps 747 mmHg 75%
    08:00 +23°C° 0 mm 2 mps 747 mmHg 69%
    09:00 +25°C° 0 mm 2 mps 748 mmHg 63%
    10:00 +27°C° 0 mm 2 mps 748 mmHg 57%
    11:00 +28°C° 0 mm 2 mps 748 mmHg 53%
    12:00 +29°C° 0 mm 2 mps 748 mmHg 48%
    13:00 +30°C° 0 mm 2 mps 747 mmHg 43%
    14:00 +30°C° 0 mm 2 mps 747 mmHg 44%
    15:00 +30°C° 0 mm 2 mps 747 mmHg 45%
    16:00 +30°C° 0 mm 2 mps 747 mmHg 46%
    17:00 +29°C° 0 mm 2 mps 747 mmHg 52%
    18:00 +27°C° 0 mm 2 mps 747 mmHg 59%
    19:00 +26°C° 0 mm 1 mps 747 mmHg 66%
    20:00 +25°C° 0 mm 1 mps 747 mmHg 67%
    21:00 +23°C° 0 mm 1 mps 747 mmHg 69%
    22:00 +22°C° 0 mm 1 mps 747 mmHg 70%
    23:00 +21°C° 0 mm 1 mps 748 mmHg 72%

    26 July, Thursday

    Time Temperature Precipitation Wind Pressure Humidity
    00:00 +21°C° 0 mm 1 mps 748 mmHg 73%
    01:00 +21°C° 0 mm 1 mps 748 mmHg 74%
    02:00 +20°C° 0 mm 1 mps 748 mmHg 76%
    03:00 +19°C° 0 mm 1 mps 748 mmHg 79%
    04:00 +19°C° 0 mm 1 mps 748 mmHg 81%
    05:00 +20°C° 0 mm 1 mps 748 mmHg 78%
    06:00 +21°C° 0 mm 1 mps 748 mmHg 75%
    07:00 +23°C° 0 mm 1 mps 749 mmHg 73%
    08:00 +24°C° 0 mm 1 mps 749 mmHg 67%
    09:00 +26°C° 0 mm 1 mps 749 mmHg 62%
    10:00 +28°C° 0 mm 1 mps 749 mmHg 57%
    11:00 +28°C° 0 mm 1 mps 748 mmHg 53%
    12:00 +29°C° 0 mm 1 mps 748 mmHg 50%
    13:00 +30°C° 0 mm 1 mps 748 mmHg 46%
    14:00 +30°C° 0 mm 1 mps 748 mmHg 47%
    15:00 +30°C° 0 mm 1 mps 748 mmHg 48%
    16:00 +30°C° 0 mm 2 mps 748 mmHg 49%
    17:00 +29°C° 0 mm 2 mps 748 mmHg 55%
    18:00 +27°C° 0 mm 2 mps 748 mmHg 61%
    19:00 +26°C° 0 mm 2 mps 748 mmHg 67%
    20:00 +25°C° 0 mm 2 mps 748 mmHg 69%
    21:00 +23°C° 0 mm 2 mps 748 mmHg 71%
    22:00 +21°C° 0 mm 2 mps 748 mmHg 73%
    23:00 +20°C° 0 mm 2 mps 748 mmHg 73%

    27 July, Friday

    Time Temperature Precipitation Wind Pressure Humidity
    00:00 +20°C° 0 mm 2 mps 748 mmHg 73%
    01:00 +19°C° 0 mm 2 mps 748 mmHg 74%
    02:00 +20°C° 0 mm 1 mps 748 mmHg 74%
    03:00 +20°C° 0 mm 1 mps 748 mmHg 74%
    04:00 +19°C° 0 mm 1 mps 748 mmHg 75%
    05:00 +20°C° 0 mm 1 mps 748 mmHg 74%
    06:00 +21°C° 0 mm 1 mps 748 mmHg 74%
    07:00 +22°C° 0 mm 1 mps 748 mmHg 73%
    08:00 +23°C° 0 mm 1 mps 748 mmHg 70%
    09:00 +25°C° 0 mm 1 mps 748 mmHg 66%
    10:00 +26°C° 0 mm 1 mps 748 mmHg 63%
    11:00 +28°C° 0 mm 2 mps 748 mmHg 56%
    12:00 +29°C° 0 mm 2 mps 748 mmHg 50%
    13:00 +31°C° 0 mm 2 mps 748 mmHg 43%
    14:00 +30°C° 0 mm 2 mps 747 mmHg 45%
    15:00 +30°C° 0 mm 2 mps 747 mmHg 48%
    16:00 +30°C° 0 mm 2 mps 747 mmHg 50%
    17:00 +28°C° 0 mm 2 mps 747 mmHg 55%
    18:00 +27°C° 0 mm 2 mps 747 mmHg 60%
    19:00 +26°C° 0 mm 2 mps 747 mmHg 66%
    20:00 +25°C° 0 mm 2 mps 747 mmHg 67%
    21:00 +24°C° 0 mm 2 mps 747 mmHg 69%
    22:00 +21°C° 0 mm 2 mps 747 mmHg 70%
    23:00 +21°C° 0 mm 2 mps 747 mmHg 71%
    Show more